Theta_e
350 350 350 352 353 350 348 350 350 353 349 351 351 352 352 349 352 353 353 354 352 353 350 351 351 349 350 350 350 347 352 351 347 348 343 340 340 341 346 351 352 351 347
350 350 347 351 354 352 348 348 347 352 351 352 351 353 351 349 352 353 351 353 351 353 349 350 351 351 349 346 348 348 343 347 351 344 349 348 341 340 342 347 351 347 348
348 350 350 350 352 354 353 353 352 352 353 352 352 352 353 352 351 350 351 350 349 350 349 350 351 351 351 350 349 348 344 339 344 349 349 351 348 340 341 343 347 346 345
347 347 350 348 353 352 352 352 352 353 351 353 353 353 352 352 352 352 351 351 350 350 350 349 350 350 351 351 352 350 347 342 340 338 346 350 347 342 340 337 336 339 341
346 349 346 350 353 351 348 350 353 349 351 353 352 353 352 352 348 347 346 346 346 343 346 349 351 353 351 350 348 349 350 348 344 342 350 350 351 349 342 339 340 340 339
347 351 345 346 353 350 348 353 349 349 349 354 351 349 345 343 345 345 344 349 351 351 348 343 346 348 348 345 345 346 347 349 348 349 350 349 351 351 347 345 344 348 343
351 350 351 351 351 348 349 348 344 344 348 348 346 344 340 340 345 348 350 351 348 346 342 340 340 341 344 345 345 346 347 345 347 351 352 350 350 350 348 346 343 344 347
349 351 354 352 350 352 349 339 341 341 343 342 343 342 344 346 346 345 344 342 343 344 340 341 341 341 342 343 345 345 344 343 351 351 351 350 350 351 349 349 345 344 347
346 349 351 350 350 354 346 347 351 343 340 339 343 344 342 342 342 344 340 339 339 339 339 339 339 339 338 342 342 343 343 343 344 350 351 351 352 350 348 347 343 344 346
345 347 346 347 353 352 348 346 346 335 341 340 343 345 347 347 347 347 352 341 339 339 339 340 341 341 340 338 341 340 340 341 345 349 352 352 351 348 346 342 338 344 346
346 345 345 349 350 348 348 338 336 343 349 350 349 350 348 351 350 349 343 342 347 346 347 348 347 347 347 346 348 347 348 349 347 351 353 349 348 347 345 341 338 342 344
345 346 347 347 348 346 341 344 346 350 353 354 355 357 354 353 352 351 348 350 351 351 353 351 351 350 351 351 351 350 349 351 352 354 350 349 346 344 344 343 342 342 344
345 346 346 345 347 346 345 351 351 349 352 352 357 358 342 354 348 352 354 353 352 353 352 352 353 353 350 351 352 352 352 351 351 349 348 349 344 343 345 345 345 346 345
344 345 347 345 345 345 349 349 349 350 349 356 354 356 353 354 356 354 351 353 353 350 353 352 352 353 350 351 352 349 352 353 353 351 346 345 343 341 344 349 350 350 349
343 344 347 348 349 345 347 347 349 348 352 352 356 356 354 355 352 354 351 353 354 350 351 352 347 352 352 351 349 350 351 350 352 349 348 347 346 340 342 346 346 346 346
343 344 348 350 350 348 353 351 350 351 348 353 355 356 357 358 351 355 355 354 350 352 352 351 351 353 354 352 352 351 350 349 347 348 348 346 342 338 337 340 344 344 342
342 343 345 348 348 350 355 354 352 351 351 351 354 356 354 356 350 355 355 351 351 351 351 351 352 353 355 352 354 352 349 348 345 347 348 345 336 332 329 326 331 336 338
341 343 342 343 346 354 354 354 354 352 351 350 354 357 354 355 354 347 356 354 350 356 354 353 353 354 354 350 353 351 345 345 349 348 344 345 342 334 333 329 328 326 328
342 343 341 343 347 353 354 353 352 352 352 352 351 355 353 354 352 355 356 350 351 358 356 353 354 356 356 350 353 351 347 346 347 342 343 339 341 340 337 332 330 329 330
344 345 344 345 349 351 353 354 351 351 351 349 351 354 348 354 356 354 358 359 357 356 356 358 356 357 357 353 346 353 351 349 342 340 341 339 336 342 338 338 332 332 333
345 346 347 350 350 351 355 352 353 351 347 349 353 354 355 350 352 354 355 359 352 358 358 359 357 357 355 352 346 347 354 349 344 337 336 338 336 336 337 334 334 333 332
350 350 351 352 352 353 353 351 351 353 355 353 355 355 353 352 353 356 358 360 355 359 357 358 357 357 356 355 348 341 351 353 344 344 338 338 337 336 335 332 333 332 332
354 354 353 353 355 353 351 349 351 354 352 351 350 347 354 354 352 356 359 359 358 360 356 357 357 360 358 351 347 345 346 347 338 341 342 339 336 336 334 332 331 331 330
355 356 356 356 357 356 353 352 350 349 348 347 349 355 353 352 351 354 358 358 358 361 358 360 360 360 357 353 340 337 344 341 345 343 337 343 341 334 335 328 332 329 330
351 354 360 358 359 358 356 353 354 350 351 346 346 354 345 355 350 355 357 358 361 360 358 361 360 357 356 350 344 340 334 332 337 336 336 335 340 338 334 330 329 329 328
350 352 356 362 361 359 360 352 355 354 345 350 348 352 350 354 354 355 358 355 362 361 362 362 359 359 356 350 335 335 328 327 325 327 329 329 328 331 332 330 329 328 329
Wind_Speed
16 14 12 10 9 10 9 9 10 10 9 9 9 9 9 9 9 8 8 9 9 9 9 9 9 8 7 6 6 5 5 5 5 5 7 8 8 8 9 8 7 8 9
19 16 13 11 10 10 10 9 10 10 9 10 10 9 9 10 10 9 8 7 7 7 6 7 7 7 5 5 3 3 3 3 4 6 8 7 7 7 8 7 11 10 9
20 17 14 13 11 10 10 10 9 11 10 9 9 9 10 9 8 7 7 7 6 5 5 5 4 3 3 4 4 3 2 0 1 2 5 8 8 5 8 7 8 8 8
19 16 13 13 11 10 11 10 11 10 10 11 10 11 10 9 9 8 6 6 5 5 4 3 4 5 5 4 4 4 4 3 2 3 2 9 3 10 7 8 7 6 7
20 16 14 13 11 10 10 10 11 10 11 10 10 10 10 8 6 5 5 4 3 3 4 4 5 5 4 4 4 4 5 6 5 5 2 5 9 10 8 7 6 6 7
16 19 16 13 11 10 10 9 9 9 9 9 8 7 6 5 4 2 2 3 3 4 3 4 5 5 6 7 7 7 7 7 8 7 5 8 10 12 9 6 7 8 9
23 19 18 15 12 11 10 9 8 9 8 7 6 5 3 3 2 1 2 2 2 2 4 7 5 6 6 7 8 9 10 10 10 11 11 12 13 12 12 8 8 11 12
26 20 17 15 12 12 9 9 8 8 7 6 5 4 2 2 2 2 2 3 3 3 3 3 2 4 6 7 8 7 6 6 8 14 14 17 15 14 14 9 9 11 12
24 20 16 14 13 12 9 10 8 7 7 6 4 5 7 8 7 5 5 5 5 4 3 3 4 5 5 4 4 4 6 3 7 15 19 13 15 10 9 7 11 12 13
23 21 20 16 14 13 10 10 9 9 8 8 8 7 5 4 3 6 4 5 5 4 5 5 6 6 6 7 8 8 9 7 10 4 9 13 16 11 6 8 9 13 13
25 20 18 15 15 15 10 10 11 10 8 7 6 5 4 4 3 4 1 3 6 4 3 5 6 5 5 8 10 10 10 13 13 22 13 12 7 3 6 7 8 11 13
15 19 16 14 15 15 13 10 10 5 3 2 1 4 5 4 1 7 6 3 5 6 5 6 7 7 13 11 13 13 17 12 8 12 10 6 2 4 5 6 8 10 12
15 19 18 17 14 17 12 10 16 11 9 8 4 7 5 14 12 5 5 3 7 6 7 10 9 8 11 6 8 13 5 14 1 6 6 7 8 7 6 6 6 8 10
16 16 19 15 11 15 11 13 11 11 8 11 3 3 4 1 4 6 4 7 4 6 6 8 6 7 11 12 8 10 18 13 10 13 12 13 12 11 7 3 4 7 9
17 16 18 13 5 12 9 9 6 8 4 7 9 5 2 6 3 0 6 8 1 9 7 8 6 9 10 5 3 7 15 17 12 13 11 9 10 11 8 6 7 5 4
16 17 16 14 9 9 1 6 4 3 2 6 9 7 3 7 6 7 8 10 6 7 6 7 9 15 16 6 4 6 8 8 10 7 7 8 9 9 9 10 14 14 13
17 17 17 15 12 10 7 7 7 4 9 2 8 8 5 6 7 10 8 5 7 10 7 10 12 17 8 9 8 10 9 6 4 4 10 12 12 12 12 11 13 15 15
19 18 16 16 15 11 10 6 9 5 8 1 8 8 4 2 5 9 12 9 5 11 9 13 16 13 15 8 15 9 8 8 2 6 12 12 13 13 12 11 11 10 10
21 18 15 20 16 12 9 5 4 4 4 5 5 7 6 5 5 10 10 9 13 13 7 13 14 16 15 10 7 7 7 4 5 7 7 9 5 7 12 8 7 9 10
19 18 15 18 17 13 11 5 8 6 8 3 3 6 7 7 5 10 9 8 13 12 13 11 11 16 17 5 15 10 8 4 4 7 11 10 9 9 7 5 6 8 10
21 19 17 16 18 14 10 10 8 12 7 7 6 6 4 3 5 11 12 15 17 14 6 9 12 16 19 9 10 12 10 7 6 9 7 9 7 6 6 7 7 2 6
23 20 19 17 18 15 13 13 8 5 3 2 9 3 1 0 4 4 9 12 14 11 12 13 12 14 17 12 6 10 2 8 6 6 6 7 7 7 12 8 5 3 4
27 25 21 19 19 17 15 11 5 4 4 3 4 7 5 3 3 2 5 8 12 14 15 12 13 11 14 15 10 6 3 4 11 2 8 8 4 7 6 4 7 3 7
27 26 26 21 21 18 15 13 11 10 10 11 13 10 4 1 2 3 3 6 10 10 12 9 11 12 11 15 15 15 3 2 1 4 5 6 6 7 8 3 7 3 5
24 27 26 26 21 19 19 14 12 12 11 7 7 2 1 5 5 2 3 4 5 9 9 8 9 11 12 11 12 13 15 16 7 5 4 7 7 15 10 6 5 6 12
25 25 27 27 24 22 21 19 15 13 13 8 9 4 9 15 11 6 1 4 3 8 8 8 8 7 9 10 11 16 14 10 12 11 4 9 12 7 10 8 7 6 13
Wind_Direction
128 130 124 116 103 95 86 86 82 82 81 83 86 82 80 83 85 83 78 69 69 74 78 71 61 58 46 48 52 71 108 121 106 88 90 101 98 110 118 112 85 117 111
132 134 130 122 107 106 104 102 94 84 84 82 88 85 79 76 80 78 78 71 66 66 70 60 59 51 39 41 45 57 94 125 137 139 133 117 121 135 134 126 96 132 119
132 136 130 121 111 103 100 96 92 89 87 90 88 87 81 76 75 70 67 65 67 62 56 39 30 19 350 352 350 357 349 57 168 149 150 165 152 176 157 149 129 134 125
130 136 130 123 110 105 99 93 89 86 83 85 84 83 77 75 72 67 63 62 58 45 21 348 338 331 330 317 317 310 311 291 252 220 181 184 232 162 174 173 162 161 149
129 130 132 120 116 110 105 98 95 88 89 84 82 78 74 74 73 63 47 31 13 359 341 326 329 326 308 307 316 313 296 281 267 249 243 205 170 185 188 177 178 178 176
132 132 129 125 119 116 112 107 108 107 97 90 85 81 81 82 69 52 27 356 336 314 298 303 288 294 308 309 307 301 282 270 262 247 241 232 216 202 205 187 191 201 191
116 123 126 127 122 121 118 118 121 124 118 112 104 96 100 89 69 21 1 352 340 330 310 296 281 280 291 298 302 301 283 267 252 252 244 234 224 234 220 217 222 210 210
123 123 125 130 130 129 124 126 124 126 125 121 121 122 95 68 62 55 57 51 60 44 52 57 5 321 306 292 288 289 281 261 266 274 260 242 226 227 215 232 249 225 224
120 126 131 135 136 135 132 132 133 143 137 130 116 96 91 77 72 73 80 65 63 53 38 18 351 329 323 313 310 293 290 264 248 269 259 245 234 203 223 257 256 236 230
128 135 132 144 146 142 139 147 146 136 120 105 95 92 83 71 96 63 54 30 28 16 5 349 328 309 293 278 278 288 305 275 238 185 277 200 177 190 241 272 251 234 233
117 126 142 153 158 143 147 147 139 136 130 108 76 30 66 29 353 131 257 6 45 46 38 13 9 343 316 291 289 295 288 284 232 233 255 172 164 235 277 267 249 240 244
138 141 134 146 150 155 140 149 154 149 186 69 131 331 205 123 48 343 258 30 32 28 353 345 323 329 315 311 311 289 277 319 344 102 119 107 42 321 293 260 250 246 244
157 129 151 137 164 163 157 175 186 148 152 144 110 44 28 76 54 126 241 293 348 344 360 333 312 307 321 323 314 319 277 281 64 116 89 42 17 360 322 278 267 268 263
151 135 132 150 175 133 175 189 145 152 156 168 138 143 347 109 18 40 326 319 30 21 328 14 26 325 335 338 325 0 38 68 105 89 75 55 48 38 24 17 304 283 287
135 146 130 149 135 146 189 158 108 124 140 174 143 73 1 95 73 110 36 17 43 44 13 24 355 311 326 293 29 34 45 48 73 73 63 49 42 51 52 57 46 30 339
143 142 135 153 158 177 51 128 135 357 92 116 143 115 41 23 21 310 352 329 10 12 342 340 341 302 320 339 71 78 70 38 46 50 94 77 80 75 72 71 71 69 60
150 152 149 153 163 170 153 167 225 255 247 238 146 119 77 37 326 330 336 20 9 8 345 354 4 3 32 28 156 128 107 90 45 165 118 108 99 93 73 79 77 74 69
154 152 160 161 160 167 173 202 258 217 272 323 147 112 88 351 329 321 331 10 14 305 304 4 21 347 350 340 159 149 109 102 136 119 102 123 119 116 96 85 85 72 71
144 147 169 146 159 168 168 189 273 271 293 298 104 106 54 344 324 13 337 6 355 331 73 31 349 337 320 334 328 144 131 95 120 95 101 105 93 127 107 104 92 80 72
148 155 167 150 161 172 164 217 214 211 267 230 197 76 62 334 337 348 337 14 331 11 32 20 345 330 327 29 347 179 163 100 105 128 128 112 109 140 79 82 117 88 91
158 166 166 168 161 175 164 186 223 202 216 249 153 106 56 0 352 343 360 6 8 14 9 15 357 348 343 32 13 339 178 160 148 133 129 128 119 157 128 89 103 76 116
159 168 171 174 170 182 195 213 222 272 60 54 95 132 164 162 328 40 16 358 355 356 32 24 14 355 348 5 39 351 8 184 112 117 132 145 141 176 148 148 133 121 88
163 169 180 182 178 194 193 207 231 261 311 328 282 253 203 177 291 13 21 5 352 18 26 24 13 9 340 21 53 69 3 21 326 60 172 159 137 121 145 147 164 184 114
167 172 179 185 186 197 214 197 199 205 232 223 240 136 182 160 265 282 42 14 357 27 29 19 7 14 20 15 21 22 38 245 231 324 5 184 203 176 187 108 160 70 159
182 175 177 182 190 197 202 206 192 227 252 260 258 125 99 199 218 186 48 20 22 20 27 25 25 25 33 28 20 360 14 16 14 358 335 347 262 183 163 141 125 107 113
186 183 178 179 191 201 198 210 208 210 231 276 247 192 241 227 199 171 99 22 55 30 10 20 31 30 40 25 30 23 29 32 15 2 349 343 342 352 176 150 140 106 127